timestamp,surface_pressure_avg,surface_temp_avg,battery_voltage,lat,long
2023-12-01 00:09:00+00:00,281.3663,6.6,12.01,47.84626,-54.09684
2023-12-01 00:19:00+00:00,292.9113,6.67,12.01,47.84626,-54.09684
2023-12-01 00:29:00+00:00,299.6797,6.7,12.01,47.84626,-54.09684
2023-12-01 00:39:00+00:00,298.4547,6.7,12.01,47.84626,-54.09684
2023-12-01 00:49:00+00:00,303.693,6.7,12.01,47.84626,-54.09684
2023-12-01 00:59:00+00:00,311.8497,6.74,12.01,47.84626,-54.09684
2023-12-01 01:09:00+00:00,312.5013,6.79,12.01,47.84626,-54.09684
2023-12-01 01:19:00+00:00,310.7247,6.79,12.01,47.84626,-54.09684
2023-12-01 01:29:00+00:00,316.103,6.8,12.01,47.84626,-54.09684
2023-12-01 01:39:00+00:00,319.0413,6.8,12.01,47.84626,-54.09684
2023-12-01 01:49:00+00:00,316.0646,6.8,12.01,47.84626,-54.09684
2023-12-01 01:59:00+00:00,316.468,6.8,12.01,47.84626,-54.09684
2023-12-01 02:09:00+00:00,322.7613,6.8,12.01,47.84626,-54.09684
2023-12-01 02:19:00+00:00,324.5212,6.81,12.01,47.84626,-54.09684
2023-12-01 02:29:00+00:00,320.223,6.88,12.01,47.84626,-54.09684
2023-12-01 02:39:00+00:00,316.8931,6.8,12.01,47.84626,-54.09684
2023-12-01 02:49:00+00:00,315.1097,6.8,12.01,47.84626,-54.09684
2023-12-01 02:59:00+00:00,312.1563,6.8,12.01,47.84626,-54.09684
2023-12-01 03:09:00+00:00,308.1247,6.8,12.01,47.84626,-54.09684
2023-12-01 03:19:00+00:00,308.2664,6.8,12.01,47.84626,-54.09684
2023-12-01 03:29:00+00:00,305.2613,6.83,12.01,47.84626,-54.09684
2023-12-01 03:39:00+00:00,299.4563,6.85,12.01,47.84626,-54.09684
2023-12-01 03:49:00+00:00,297.058,6.88,12.01,47.84626,-54.09684
2023-12-01 03:59:00+00:00,296.5664,6.88,12.01,47.84626,-54.09684
2023-12-01 04:09:00+00:00,292.6514,6.89,12.01,47.84626,-54.09684
2023-12-01 04:19:00+00:00,286.4714,6.89,12.01,47.84626,-54.09684
2023-12-01 04:29:00+00:00,283.7964,6.89,12.01,47.84626,-54.09684
2023-12-01 04:39:00+00:00,274.9397,6.85,12.01,47.84626,-54.09684
2023-12-01 04:49:00+00:00,264.4081,6.8,12.01,47.84626,-54.09684
2023-12-01 04:59:00+00:00,259.8165,6.8,12.01,47.84626,-54.09684
2023-12-01 05:09:00+00:00,255.2598,6.8,12.01,47.84626,-54.09684
2023-12-01 05:19:00+00:00,244.5131,6.7,11.93,47.84626,-54.09684
2023-12-01 05:29:00+00:00,236.0931,6.7,11.93,47.84626,-54.09684
2023-12-01 05:39:00+00:00,233.7997,6.7,11.93,47.84626,-54.09684
2023-12-01 05:49:00+00:00,227.7264,6.68,11.93,47.84626,-54.09684
2023-12-01 05:59:00+00:00,218.0597,6.6,11.93,47.84626,-54.09684
2023-12-01 06:09:00+00:00,214.6031,6.54,11.93,47.84626,-54.09684
2023-12-01 06:19:00+00:00,213.0531,6.58,11.93,47.84626,-54.09684
2023-12-01 06:29:00+00:00,204.9881,6.5,11.93,47.84626,-54.09684
2023-12-01 06:39:00+00:00,198.7865,6.49,11.93,47.84626,-54.09684
2023-12-01 06:49:00+00:00,202.0165,6.5,11.93,47.84626,-54.09684
2023-12-01 06:59:00+00:00,201.4098,6.5,11.93,47.84626,-54.09684
2023-12-01 07:09:00+00:00,197.1848,6.49,11.93,47.84626,-54.09684
2023-12-01 07:19:00+00:00,198.7014,6.41,11.93,47.84626,-54.09684
2023-12-01 07:29:00+00:00,200.0564,6.47,11.93,47.84626,-54.09684
2023-12-01 07:39:00+00:00,196.4798,6.45,11.93,47.84626,-54.09684
2023-12-01 07:49:00+00:00,198.0081,6.45,11.93,47.84626,-54.09684
2023-12-01 07:59:00+00:00,204.5114,6.5,11.93,47.84626,-54.09684
2023-12-01 08:09:00+00:00,205.1931,6.5,11.93,47.84626,-54.09684
2023-12-01 08:19:01+00:00,203.8448,6.49,11.93,47.84626,-54.09684
2023-12-01 08:29:01+00:00,205.4064,6.48,11.93,47.84626,-54.09684
2023-12-01 08:39:01+00:00,208.2281,6.49,11.93,47.84626,-54.09684
2023-12-01 08:49:01+00:00,210.9681,6.48,11.93,47.84626,-54.09684
2023-12-01 08:59:01+00:00,214.1148,6.49,11.93,47.84626,-54.09684
2023-12-01 09:09:01+00:00,218.8298,6.5,11.93,47.84626,-54.09684
2023-12-01 09:19:01+00:00,226.913,6.5,11.86,47.84626,-54.09684
2023-12-01 09:29:01+00:00,232.8014,6.5,11.86,47.84626,-54.09684
2023-12-01 09:39:01+00:00,234.5231,6.5,11.86,47.84626,-54.09684
2023-12-01 09:49:01+00:00,235.5547,6.5,11.86,47.84626,-54.09684
2023-12-01 09:59:01+00:00,240.1964,6.5,11.86,47.84626,-54.09684
2023-12-01 10:09:01+00:00,245.7614,6.5,11.86,47.84626,-54.09684
2023-12-01 10:19:01+00:00,248.748,6.49,11.93,47.84626,-54.09684
2023-12-01 10:29:01+00:00,249.1031,6.5,11.93,47.84626,-54.09684
2023-12-01 10:39:01+00:00,252.308,6.6,11.93,47.84626,-54.09684
2023-12-01 10:49:01+00:00,256.3781,6.6,11.93,47.84626,-54.09684
2023-12-01 10:59:01+00:00,256.9264,6.6,11.93,47.84626,-54.09684
2023-12-01 11:09:01+00:00,259.1997,6.62,11.93,47.84626,-54.09684
2023-12-01 11:19:00+00:00,266.5014,6.64,11.93,47.84626,-54.09684
2023-12-01 11:29:00+00:00,273.5981,6.69,11.93,47.84626,-54.09684
2023-12-01 11:39:00+00:00,276.2947,6.7,11.93,47.84626,-54.09684
2023-12-01 11:49:00+00:00,282.2297,6.7,11.93,47.84626,-54.09684
2023-12-01 11:59:00+00:00,289.1581,6.7,11.93,47.84626,-54.09684
2023-12-01 12:09:00+00:00,294.983,6.7,11.93,47.84626,-54.09684
2023-12-01 12:19:00+00:00,299.6514,6.7,11.93,47.84626,-54.09684
2023-12-01 12:29:00+00:00,306.193,6.7,11.93,47.84626,-54.09684
2023-12-01 12:39:00+00:00,311.2947,6.7,11.93,47.84626,-54.09684
2023-12-01 12:49:00+00:00,319.353,6.72,11.93,47.84626,-54.09684
2023-12-01 12:59:00+00:00,329.218,6.8,11.93,47.84626,-54.09684
2023-12-01 13:09:00+00:00,335.0347,6.8,11.93,47.84626,-54.09684
2023-12-01 13:19:00+00:00,336.2213,6.8,12.25,47.84626,-54.09684
2023-12-01 13:29:00+00:00,340.0963,6.82,12.25,47.84626,-54.09684
2023-12-01 13:39:00+00:00,346.6079,6.84,12.25,47.84626,-54.09684
2023-12-01 13:49:00+00:00,349.1447,6.86,12.25,47.84626,-54.09684
2023-12-01 13:59:00+00:00,345.7229,6.86,12.25,47.84626,-54.09684
2023-12-01 14:09:00+00:00,343.4747,6.87,12.25,47.84626,-54.09684
2023-12-01 14:19:00+00:00,344.9897,6.89,12.01,47.84626,-54.09684
2023-12-01 14:29:00+00:00,345.4296,6.9,12.01,47.84626,-54.09684
2023-12-01 14:39:00+00:00,342.5680000000001,6.9,12.01,47.84626,-54.09684
2023-12-01 14:49:00+00:00,344.8446,6.9,12.01,47.84626,-54.09684
2023-12-01 14:59:00+00:00,348.3646,6.89,12.01,47.84626,-54.09684
2023-12-01 15:09:00+00:00,349.5013,6.9,12.01,47.84626,-54.09684
2023-12-01 15:19:00+00:00,351.7364,6.94,12.09,47.84626,-54.09684
2023-12-01 15:29:00+00:00,348.5862,6.9,12.09,47.84626,-54.09684
2023-12-01 15:39:00+00:00,344.2296,6.64,12.09,47.84626,-54.09684
2023-12-01 15:49:00+00:00,340.5746,6.72,12.09,47.84626,-54.09684
2023-12-01 15:59:00+00:00,336.2263,6.6,12.09,47.84626,-54.09684
2023-12-01 16:09:00+00:00,329.8397,6.46,12.09,47.84626,-54.09684
2023-12-01 16:19:00+00:00,324.9563,6.4,12.01,47.84626,-54.09684
2023-12-01 16:29:00+00:00,320.1564,6.39,12.01,47.84626,-54.09684
2023-12-01 16:39:00+00:00,311.313,6.38,12.01,47.84626,-54.09684
2023-12-01 16:49:00+00:00,305.0197,6.4,12.01,47.84626,-54.09684
2023-12-01 16:59:00+00:00,301.3896,6.3,12.01,47.84626,-54.09684
2023-12-01 17:09:00+00:00,295.0747,6.2,12.01,47.84626,-54.09684
2023-12-01 17:19:00+00:00,285.803,6.1,12.01,47.84626,-54.09684
2023-12-01 17:29:00+00:00,277.033,6.1,12.01,47.84626,-54.09684
2023-12-01 17:39:00+00:00,271.0147,5.7,12.01,47.84626,-54.09684
2023-12-01 17:49:00+00:00,261.5664,5.88,12.01,47.84626,-54.09684
2023-12-01 17:59:00+00:00,250.3198,5.9,12.01,47.84626,-54.09684
2023-12-01 18:09:00+00:00,240.5397,5.64,12.01,47.84626,-54.09684
2023-12-01 18:19:01+00:00,233.9398,5.68,12.01,47.84626,-54.09684
2023-12-01 18:29:01+00:00,224.7981,5.66,12.01,47.84626,-54.09684
2023-12-01 18:39:01+00:00,216.2531,5.6,12.01,47.84626,-54.09684
2023-12-01 18:49:01+00:00,210.5764,5.69,12.01,47.84626,-54.09684
2023-12-01 18:59:01+00:00,205.1964,5.5,12.01,47.84626,-54.09684
2023-12-01 19:09:01+00:00,200.0331,4.8,12.01,47.84626,-54.09684
2023-12-01 19:19:00+00:00,199.2448,4.9,11.93,47.84626,-54.09684
2023-12-01 19:29:00+00:00,199.8065,4.99,11.93,47.84626,-54.09684
2023-12-01 19:39:00+00:00,196.7464,5.08,11.93,47.84626,-54.09684
2023-12-01 19:49:00+00:00,191.9364,5.14,11.93,47.84626,-54.09684
2023-12-01 19:59:00+00:00,194.4965,5.19,11.93,47.84626,-54.09684
2023-12-01 20:09:00+00:00,200.1014,5.4,11.93,47.84626,-54.09684
2023-12-01 20:19:00+00:00,198.1815,5.65,11.93,47.84626,-54.09684
2023-12-01 20:29:00+00:00,195.3448,5.7,11.93,47.84626,-54.09684
2023-12-01 20:39:00+00:00,200.8914,5.67,11.93,47.84626,-54.09684
2023-12-01 20:49:00+00:00,207.6115,5.66,11.93,47.84626,-54.09684
2023-12-01 20:59:00+00:00,206.2681,5.6,11.93,47.84626,-54.09684
2023-12-01 21:09:00+00:00,209.0731,5.61,11.93,47.84626,-54.09684
2023-12-01 21:19:00+00:00,217.8448,5.67,11.93,47.84626,-54.09684
2023-12-01 21:29:00+00:00,221.9564,5.66,11.93,47.84626,-54.09684
2023-12-01 21:39:00+00:00,220.5348,5.69,11.93,47.84626,-54.09684
2023-12-01 21:49:00+00:00,222.8664,5.6,11.93,47.84626,-54.09684
2023-12-01 21:59:00+00:00,227.7748,5.6,11.93,47.84626,-54.09684
2023-12-01 22:09:00+00:00,231.3464,5.6,11.93,47.84626,-54.09684
2023-12-01 22:19:00+00:00,234.5514,5.6,11.93,47.84626,-54.09684
2023-12-01 22:29:00+00:00,238.1631,5.5,11.93,47.84626,-54.09684
2023-12-01 22:39:00+00:00,239.9081,5.52,11.93,47.84626,-54.09684
2023-12-01 22:49:00+00:00,242.8031,5.54,11.93,47.84626,-54.09684
2023-12-01 22:59:00+00:00,246.7714,5.5,11.93,47.84626,-54.09684
2023-12-01 23:09:00+00:00,251.2414,5.56,11.93,47.84626,-54.09684
2023-12-01 23:19:00+00:00,253.1848,5.5,11.86,47.84626,-54.09684
2023-12-01 23:29:00+00:00,255.5031,5.55,11.86,47.84626,-54.09684
2023-12-01 23:39:00+00:00,257.253,5.6,11.86,47.84626,-54.09684
2023-12-01 23:49:00+00:00,260.3081,5.6,11.86,47.84626,-54.09684
2023-12-01 23:59:00+00:00,264.038,5.66,11.86,47.84626,-54.09684
